Flag for U.S.A. Weather past 2 weeks in Santa Barbara, California, U.S.A.

Now
61 °F

Clear.


Feels Like: 61 °F
Forecast: 59 / 75 °F
Wind: No wind

Location: Santa Barbara Municipal Airport

Current Time: Oct 1, 2014 at 2:00:34 AM

Latest Report: Oct 1, 2014 at 12:53 AM


Visibility: 10 mi

Pressure: 29.73 "Hg

Humidity: 87%

Dew point: 57 °F

Location of Santa BarbaraLocation

Historic Weather in Santa Barbara — Graph

°F

Santa Barbara temperature yesterday

Maximum temperature yesterday: 78 °F (at 1:53 PM)
Minimum temperature yesterday: 51 °F (at 6:53 AM)
Average temperature yesterday: 65 °F

Past Weeks' High & Low Weather Summary

 TemperatureHumidityPressure
High95 °F (Sep 16, 6:53 PM)94% (Sep 20, 9:53 PM)30.01 "Hg (Sep 20, 9:53 PM)
Low51 °F (Sep 30, 6:53 AM)13% (Sep 16, 6:53 PM)29.66 "Hg (Sep 16, 5:53 PM)
Average69 °F70%29.86 "Hg
* Reported Sep 16 12:53 AM — Oct 1 12:53 AM, Santa Barbara, Weather by CustomWeather, © 2014

Note: Actual official high and low records may vary slightly from our data, if they occured in-between our weather recording intervals... More about our weather records

Advertising

Santa Barbara weather history for previous 24 hours

 ConditionsComfort  
Time TempWeatherWind HumidityBarometerVisibility
12:53 AM
Oct 1
61 °FClear.No wind87%29.73 "Hg10 mi
11:53 PM
Sep 30
60 °FClear.No wind86%29.74 "Hg10 mi
10:53 PM63 °FClear.No wind87%29.74 "Hg9 mi
9:53 PM64 °FClear.No wind84%29.74 "Hg10 mi
8:53 PM66 °FClear.6 mph81%29.75 "Hg10 mi
7:53 PM68 °FClear.7 mph82%29.74 "Hg10 mi
6:53 PM68 °FSunny.8 mph78%29.74 "Hg9 mi
5:53 PM70 °FSunny.7 mph76%29.74 "Hg9 mi
4:53 PM70 °FSunny.6 mph76%29.75 "Hg9 mi
3:53 PM73 °FSunny.9 mph69%29.76 "Hg10 mi
2:53 PM76 °FSunny.5 mph58%29.79 "Hg10 mi
1:53 PM78 °FSunny.6 mph43%29.81 "Hg10 mi
12:53 PM75 °FSunny.8 mph58%29.83 "Hg10 mi
11:53 AM74 °FSunny.8 mph64%29.86 "Hg10 mi
10:53 AM71 °FSunny.13 mph73%29.86 "Hg9 mi
9:53 AM72 °FSunny.6 mph68%29.86 "Hg10 mi
8:53 AM69 °FSunny.3 mph59%29.86 "Hg10 mi
7:53 AM59 °FSunny.No wind78%29.85 "Hg10 mi
6:53 AM51 °FClear.No wind86%29.84 "Hg10 mi
5:53 AM54 °FClear.No wind83%29.83 "Hg10 mi
4:53 AM56 °FClear.3 mph84%29.83 "Hg10 mi
3:53 AM58 °FClear.No wind87%29.83 "Hg10 mi
2:53 AM58 °FClear.No wind87%29.84 "Hg9 mi
Weather by CustomWeather, © 2014

See weather overviewHow to use our weather pages